Regional Weather Roundup
Issued by NWS

Home | Current Version | Previous Version | Text Only | Print | Product List | Glossary On
Versions: 1 2 3 4 5 6 7 8 9 10 11 12 13 14 15 16 17 18 19 20 21 22 23 24 25 26 27 28 29 30 31 32 33 34 35 36 37 38 39 40 41 42 43 44 45 46 47 48 49 50
000
ASUS43 KDTX 011210
RWRMI
MICHIGAN HOURLY REGIONAL WEATHER ROUNDUP
NATIONAL WEATHER SERVICE DETROIT/PONTIAC MI
700 AM EST SUN MAR 01 2015

NOTE: "FAIR" INDICATES FEW OR NO CLOUDS BELOW 12,000 FEET WITH NO
SIGNIFICANT WEATHER AND/OR OBSTRUCTION TO VISIBILITY.

MIZ047>049-052>055-059>063-066>070-074>076-081>083-011300-
SOUTHEAST LOWER MICHIGAN

CITY           SKY/WX    TMP DP  RH WIND       PRES   REMARKS
ADRIAN         CLOUDY    15  11  83 CALM      30.40F
6HR MIN TEMP:  14; 6HR MAX TEMP:  15; 6HR PCP: TRACE;

ALMA           CLEAR      7   6  92 S3        30.39F
ANN ARBOR      CLOUDY    16  12  84 CALM      30.40F
BAD AXE        LGT SNOW  10   8  91 S6        30.40F WCI   0
CARO           LGT SNOW  11   8  88 CALM      30.40F
DETROIT CITY   CLOUDY    17  11  77 CALM      30.42F
6HR MIN TEMP:  16; 6HR MAX TEMP:  17; 6HR PCP: TRACE;

DETROIT        CLOUDY    18  12  79 NE3       30.42F
6HR MIN TEMP:  15; 6HR MAX TEMP:  17; 6HR PCP:  0.03;

FLINT          MOCLDY    13   8  81 S3        30.40F
6HR MIN TEMP:  13; 6HR MAX TEMP:  17; 6HR PCP:  0.01;

GROSSE ILE     FLURRIES  16  12  86 NE3       30.40F
HILLSDALE      CLOUDY    15  12  88 CALM      30.35S
6HR MIN TEMP:  14; 6HR MAX TEMP:  15;

HOWELL         CLOUDY    10   8  92 CALM      30.38F FOG
6HR MIN TEMP:  10; 6HR MAX TEMP:  15;


CITY           SKY/WX    TMP DP  RH WIND       PRES   REMARKS
JACKSON        CLOUDY    14  10  84 CALM      30.38F
6HR MIN TEMP:  13; 6HR MAX TEMP:  14; 6HR PCP: TRACE;

LAMBERTVILLE   LGT SNOW  19  16  86 CALM      30.40F
LANSING        FAIR       8   4  83 CALM      30.39F FOG
6HR MIN TEMP:   7; 6HR MAX TEMP:  16; 6HR PCP:  0.01;

LAPEER         FLURRIES  11   8  87 CALM      30.40F
MASON          CLOUDY     8   4  86 CALM      30.38F
6HR MIN TEMP:   8; 6HR MAX TEMP:  14;

MONROE         FLURRIES  16  14  93 E3        30.39F
MT. CLEMENS    PTCLDY    13  10  87 CALM      30.41F
6HR MIN TEMP:  13; 6HR MAX TEMP:  13; 6HR PCP: TRACE;

PONTIAC        FLURRIES  13  10  88 SE3       30.38F
6HR MIN TEMP:  12; 6HR MAX TEMP:  14; 6HR PCP: TRACE;

PORT HOPE        N/A     12   6  77 VRB3      30.40F
6HR MIN TEMP:  12; 6HR MAX TEMP:  14;

PORT HURON     FLURRIES  12  10  92 CALM      30.43F
TRI CITIES     CLEAR     11   7  84 S6        30.41S WCI   1
6HR MIN TEMP:  11; 6HR MAX TEMP:  17; 6HR PCP: TRACE;

TROY           CLOUDY    17  13  84 CALM      30.43F
SAGINAW HB     CLEAR     10   9  92 S5        30.41F WCI   2
$$
MIZ043>046-050>051-056>058-064>065-071>073-077>080-011300-
SOUTHWEST LOWER MICHIGAN

CITY           SKY/WX    TMP DP  RH WIND       PRES   REMARKS
BATTLE CREEK   MOCLDY    10   6  84 CALM      30.38F FOG
6HR MIN TEMP:   9; 6HR MAX TEMP:  15; 6HR PCP: TRACE;

BENTON HARBOR  CLOUDY    13  12  96 SE5       30.39F WCI   5
6HR MIN TEMP:  10; 6HR MAX TEMP:  16; 6HR PCP: TRACE;

BIG RAPIDS     LGT SNOW  11   8  91 S3        30.34F
6HR MIN TEMP:   8; 6HR MAX TEMP:  14;

COLDWATER      CLOUDY    15  11  85 CALM      30.37S
6HR MIN TEMP:  14; 6HR MAX TEMP:  15;

FREMONT        LGT SNOW  12  10  89 CALM      30.36F
HOLLAND        LGT SNOW  14  10  84 S5        30.39F FOG     WCI   6
6HR MIN TEMP:   6; 6HR MAX TEMP:  17; 6HR PCP: TRACE;

GRAND RAPIDS   LGT SNOW   8   5  87 SE5       30.37F FOG     WCI   0
6HR MIN TEMP:   6; 6HR MAX TEMP:  15; 6HR PCP: TRACE;

IONIA          FOG        6   3  86 SE5       30.37F VSB 1   WCI  -2
KALAMAZOO      MOCLDY    10   6  84 CALM      30.38F FOG
6HR MIN TEMP:   9; 6HR MAX TEMP:  15;

LUDINGTON      LGT SNOW  21  16  80 W7        30.36F WCI  13
6HR MIN TEMP:  17; 6HR MAX TEMP:  22;

MARSHALL       MOCLDY     7   5  91 CALM      30.37F
MOUNT PLEASANT PTCLDY     8   5  89 CALM      30.37F
6HR MIN TEMP:   8; 6HR MAX TEMP:  16;

MUSKEGON       LGT SNOW  16  12  84 SE6       30.38F FOG     WCI   7
6HR MIN TEMP:  16; 6HR MAX TEMP:  17; 6HR PCP:  0.01;

SOUTH HAVEN    CLOUDY    15  12  89 SE3       30.39S
$$
MIZ016>042-011300-
NORTHERN LOWER MICHIGAN

CITY           SKY/WX    TMP DP  RH WIND       PRES   REMARKS
ALPENA         CLOUDY    13   1  59 S6        30.35F WCI   4
6HR MIN TEMP:   5; 6HR MAX TEMP:  13;

BEAVER ISLAND  CLOUDY    17  10  72 SW9       30.30F WCI   6
6HR MIN TEMP:  15; 6HR MAX TEMP:  18;

BELLAIRE       FLURRIES  16   9  75 S3        30.35F
6HR MIN TEMP:  -2; 6HR MAX TEMP:  16;

CADILLAC       LGT SNOW  10   7  86 CALM      30.29F
CHARLEVOIX     CLOUDY    15   9  75 S5        30.35F WCI   8
6HR MIN TEMP:  11; 6HR MAX TEMP:  16;

FRANKFORT      FLURRIES  20  15  79 W9G16     30.35S WCI  10
GAYLORD        CLOUDY    10   4  76 SW8       30.28F WCI  -2
6HR MIN TEMP:   6; 6HR MAX TEMP:  11;

GRAYLING       FLURRIES   8  -1  68 CALM      30.32F
HARBOR SPRINGS CLOUDY    15   6  69 W3        30.31F
HOUGHTON LAKE  CLOUDY    12   2  64 S5        30.33F WCI   4
6HR MIN TEMP:   8; 6HR MAX TEMP:  13; 6HR PCP: TRACE;

MANISTEE       CLOUDY    16  10  79 CALM      30.36F
OSCODA         MOCLDY     9   2  75 SW5       30.38F WCI   0
PELLSTON       CLOUDY    16   6  65 SW9       30.31F WCI   4
6HR MIN TEMP:  -9; 6HR MAX TEMP:  17;

ROGERS CITY    CLOUDY    11   2  67 S7        30.34F WCI   1
TRAVERSE CITY  LGT SNOW  15  10  80 S3        30.33F
6HR MIN TEMP:  12; 6HR MAX TEMP:  16; 6HR PCP: TRACE;

$$
MIZ007>008-015-011300-
EASTERN UPPER MICHIGAN

CITY           SKY/WX    TMP DP  RH WIND       PRES   REMARKS
KINROSS        CLOUDY    12   9  85 SW6       30.27F WCI   3
6HR MIN TEMP:   7; 6HR MAX TEMP:  12;

MACKINAC ISLAN CLOUDY    15   6  68 S9        30.29F WCI   3
6HR MIN TEMP:  11; 6HR MAX TEMP:  15;

NEWBERRY       CLOUDY    12   5  73 SW8       30.25F WCI   0
S. S. MARIE    CLOUDY     8   3  80 CALM      30.28F
6HR MIN TEMP:   2; 6HR MAX TEMP:   8;

MUNISING         N/A     14   1  56 S9        30.25F WCI   2
6HR MIN TEMP:  12; 6HR MAX TEMP:  14;

$$
MIZ004>006-011>014-085-011300-
CENTRAL UPPER MICHIGAN

CITY           SKY/WX    TMP DP  RH WIND       PRES   REMARKS
MANISTIQUE     CLOUDY    15   5  64 W7        30.27F WCI   5
6HR MIN TEMP:  14; 6HR MAX TEMP:  16;

ESCANABA       CLOUDY    12   1  62 SW7       30.30F WCI   2
6HR MIN TEMP:  10; 6HR MAX TEMP:  14;

MENOMINEE      PTCLDY    10   0  61 SW7       30.30F WCI   0
6HR MIN TEMP:  10; 6HR MAX TEMP:  16;

SAWYER-GWINN   MOCLDY     9   0  66 SW12      30.20F WCI  -6
$$
MIZ001>003-009>011-084-011300-
WESTERN UPPER MICHIGAN

CITY           SKY/WX    TMP DP  RH WIND       PRES   REMARKS
IRON MOUNTAIN  CLEAR      4  -4  69 S5        30.21F WCI  -5
6HR MIN TEMP:   4; 6HR MAX TEMP:  11;

HOUGHTON       CLOUDY    10   1  67 SW5       30.14F WCI   2
6HR MIN TEMP:   9; 6HR MAX TEMP:  14;

COPPER HARBOR    N/A     12   0  58 W8        30.16F WCI   0
6HR MIN TEMP:  11; 6HR MAX TEMP:  16;

IRONWOOD       CLOUDY    12   9  85 SW12      30.13F WCI  -2
6HR MIN TEMP:  12; 6HR MAX TEMP:  12;

$$

ABBREVIATIONS USED IN REMARKS
   TC - TEMPERATURE IN CELSIUS
  WCI - WIND CHILL INDEX
   HX - HEAT INDEX
  VSB - VISIBILITY




USA.gov is the U.S. government's official web portal to all federal, state and local government web resources and services.